Location: Feigenhofen
(48.4939°N, 10.7793°E)
Time: 15:30:03
(UTC+00:00)

Cosmos 1455 Rocket - Pass Details

Date: 26 May 2022
Orbit: 604 x 629 km, 82.5° (Epoch: 28 June)

Event Time Altitude Azimuth Distance (km) Brightness Sun altitude
Rises 00:17:15 0° 353° (N) 2,933 7.8 -19.0°
Reaches altitude 10° 00:19:32 10° 357° (N) 2,020 6.8 -18.9°
Maximum altitude 00:23:58 60° 78° (ENE) 723 3.5 -18.7°
Enters shadow 00:26:14 27° 149° (SSE) 1,207 4.2 -18.6°
